Tracking 20621 objects as of 29-Mar-2020
HD Live streaming from Space Station
objects crossing your sky now

GALS 2

Track GALS 2 now!
GALS 2 is classified as:


NORAD ID: 23717
Int'l Code: 1995-063A
Perigee: 35,852.0 km
Apogee: 35,955.3 km
Inclination: 13.7 °
Period: 1,441.7 minutes
Semi major axis: 42274 km
RCS: 8.9125 m2 (large)
Launch date: November 17, 1995
Source: Commonwealth of Independent States (former USSR) (CIS)
Launch site: TYURATAM MISSILE AND SPACE COMPLEX (TTMTR)
aabbcc
Your satellite tracking list
Your tracking list is empty




NASA's NSSDC Master Catalog

Two Line Element Set (TLE):
1 23717U 95063A   20088.29487057 -.00000229  00000-0  00000+0 0  9996
2 23717  13.6912  19.9321 0012218 312.6937 245.9574  0.99881062 88975
Source of the keplerian elements: AFSPC